When you browse on this site, cookies collect data to enhance your experience and personalize the content and advertising you see.
Visit our Privacy Policy to learn more. By continuing to use the site, you agree to this use of cookies and data.
EN

Hourly Weather Ambikapur

Today, 13 July, Monday

Time Temperature Precipitation Wind Pressure Humidity
00:00 +28°C° 0 mm 2 mps 701 mmHg 78%
01:00 +28°C° 0 mm 2 mps 700 mmHg 79%
02:00 +28°C° 0 mm 2 mps 700 mmHg 81%
03:00 +27°C° 0 mm 2 mps 700 mmHg 83%
04:00 +27°C° 0 mm 2 mps 699 mmHg 84%
05:00 +27°C° 0 mm 1 mps 699 mmHg 85%
06:00 +26°C° 0 mm 1 mps 699 mmHg 88%
07:00 +28°C° 0 mm 2 mps 700 mmHg 82%
08:00 +29°C° 0 mm 2 mps 700 mmHg 76%
09:00 +30°C° 0 mm 3 mps 700 mmHg 71%
10:00 +31°C° 0 mm 3 mps 700 mmHg 65%
11:00 +34°C° 0 mm 3 mps 700 mmHg 60%
12:00 +35°C° 0 mm 3 mps 700 mmHg 54%
13:00 +35°C° 0 mm 3 mps 700 mmHg 53%
14:00 +36°C° 0 mm 3 mps 699 mmHg 51%
15:00 +36°C° 0 mm 2 mps 699 mmHg 50%
16:00 +36°C° 0.1 mm 2 mps 698 mmHg 52%
17:00 +34°C° 0.1 mm 1 mps 698 mmHg 53%
18:00 +34°C° 0.1 mm 1 mps 698 mmHg 55%
19:00 +33°C° 0 mm 1 mps 698 mmHg 58%
20:00 +32°C° 0 mm 1 mps 699 mmHg 61%
21:00 +31°C° 0 mm 1 mps 699 mmHg 64%
22:00 +31°C° 0 mm 1 mps 699 mmHg 66%
23:00 +31°C° 0 mm 1 mps 699 mmHg 68%

Tomorrow, 14 July, Tuesday

Time Temperature Precipitation Wind Pressure Humidity
00:00 +30°C° 0 mm 1 mps 700 mmHg 69%
01:00 +29°C° 1.5 mm 1 mps 699 mmHg 74%
02:00 +29°C° 1.5 mm 2 mps 699 mmHg 78%
03:00 +28°C° 1.5 mm 2 mps 699 mmHg 82%
04:00 +28°C° 0.3 mm 2 mps 699 mmHg 83%
05:00 +28°C° 0.3 mm 2 mps 699 mmHg 83%
06:00 +28°C° 0.3 mm 1 mps 699 mmHg 84%
07:00 +28°C° 0 mm 1 mps 699 mmHg 80%
08:00 +29°C° 0 mm 1 mps 700 mmHg 77%
09:00 +30°C° 0 mm 1 mps 700 mmHg 73%
10:00 +31°C° 0.3 mm 1 mps 700 mmHg 67%
11:00 +32°C° 0.3 mm 1 mps 700 mmHg 62%
12:00 +34°C° 0.3 mm 2 mps 701 mmHg 56%
13:00 +35°C° 0.7 mm 2 mps 700 mmHg 54%
14:00 +34°C° 0.7 mm 1 mps 699 mmHg 52%
15:00 +35°C° 0.7 mm 1 mps 699 mmHg 50%
16:00 +34°C° 0.4 mm 1 mps 698 mmHg 54%
17:00 +33°C° 0.4 mm 1 mps 698 mmHg 57%
18:00 +34°C° 0.4 mm 2 mps 698 mmHg 61%
19:00 +31°C° 1.1 mm 1 mps 698 mmHg 67%
20:00 +30°C° 1.1 mm 1 mps 698 mmHg 74%
21:00 +28°C° 1.1 mm 1 mps 699 mmHg 80%
22:00 +28°C° 0.8 mm 1 mps 699 mmHg 80%
23:00 +26°C° 0.8 mm 0 mps 699 mmHg 80%

Day after tomorrow, 15 July, Wednesday

Time Temperature Precipitation Wind Pressure Humidity
00:00 +26°C° 0.8 mm 0 mps 699 mmHg 81%
01:00 +26°C° 1.1 mm 0 mps 699 mmHg 82%
02:00 +26°C° 1.1 mm 0 mps 699 mmHg 83%
03:00 +28°C° 1.1 mm 1 mps 698 mmHg 84%
04:00 +27°C° 1.1 mm 1 mps 698 mmHg 86%
05:00 +27°C° 1.1 mm 1 mps 698 mmHg 88%
06:00 +26°C° 1.1 mm 1 mps 698 mmHg 90%
07:00 +26°C° 0.8 mm 1 mps 699 mmHg 90%
08:00 +26°C° 0.8 mm 1 mps 699 mmHg 90%
09:00 +26°C° 0.8 mm 1 mps 699 mmHg 91%
10:00 +28°C° 0.1 mm 1 mps 699 mmHg 85%
11:00 +29°C° 0.1 mm 2 mps 699 mmHg 79%
12:00 +30°C° 0.1 mm 2 mps 699 mmHg 73%
13:00 +31°C° 1.1 mm 2 mps 699 mmHg 70%
14:00 +31°C° 1.1 mm 2 mps 698 mmHg 68%
15:00 +32°C° 1.1 mm 2 mps 698 mmHg 66%
16:00 +31°C° 2.4 mm 2 mps 697 mmHg 71%
17:00 +30°C° 2.4 mm 2 mps 697 mmHg 76%
18:00 +29°C° 2.4 mm 1 mps 697 mmHg 81%
19:00 +29°C° 1.3 mm 1 mps 697 mmHg 81%
20:00 +29°C° 1.3 mm 1 mps 697 mmHg 82%
21:00 +29°C° 1.3 mm 1 mps 698 mmHg 82%
22:00 +28°C° 0 mm 1 mps 698 mmHg 83%
23:00 +28°C° 0 mm 1 mps 698 mmHg 84%

16 July, Thursday

Time Temperature Precipitation Wind Pressure Humidity
00:00 +28°C° 0 mm 1 mps 698 mmHg 85%
01:00 +28°C° 0 mm 1 mps 698 mmHg 86%
02:00 +27°C° 0 mm 1 mps 697 mmHg 87%
03:00 +27°C° 0 mm 1 mps 697 mmHg 88%
04:00 +27°C° 0 mm 1 mps 697 mmHg 89%
05:00 +27°C° 0 mm 1 mps 697 mmHg 90%
06:00 +26°C° 0 mm 1 mps 697 mmHg 91%
07:00 +28°C° 0.5 mm 2 mps 698 mmHg 85%
08:00 +29°C° 0.5 mm 2 mps 698 mmHg 79%
09:00 +30°C° 0.5 mm 3 mps 698 mmHg 73%
10:00 +31°C° 0.6 mm 2 mps 698 mmHg 69%
11:00 +32°C° 0.6 mm 2 mps 698 mmHg 65%
12:00 +34°C° 0.6 mm 2 mps 698 mmHg 62%
13:00 +34°C° 1.7 mm 2 mps 698 mmHg 62%
14:00 +34°C° 1.7 mm 3 mps 697 mmHg 62%
15:00 +34°C° 1.7 mm 3 mps 697 mmHg 62%
16:00 +34°C° 1.3 mm 3 mps 696 mmHg 65%
17:00 +33°C° 1.3 mm 3 mps 696 mmHg 67%
18:00 +32°C° 1.3 mm 2 mps 696 mmHg 70%
19:00 +31°C° 1.2 mm 2 mps 696 mmHg 74%
20:00 +30°C° 1.2 mm 2 mps 697 mmHg 78%
21:00 +29°C° 1.2 mm 2 mps 697 mmHg 82%
22:00 +29°C° 0 mm 2 mps 697 mmHg 82%
23:00 +28°C° 0 mm 2 mps 698 mmHg 83%

17 July, Friday

Time Temperature Precipitation Wind Pressure Humidity
00:00 +28°C° 0 mm 2 mps 698 mmHg 84%
01:00 +28°C° 0 mm 2 mps 698 mmHg 85%
02:00 +28°C° 0 mm 2 mps 698 mmHg 86%
03:00 +27°C° 0 mm 2 mps 697 mmHg 87%
04:00 +27°C° 0 mm 2 mps 697 mmHg 88%
05:00 +27°C° 0 mm 2 mps 698 mmHg 89%
06:00 +27°C° 0 mm 2 mps 698 mmHg 89%
07:00 +28°C° 0 mm 2 mps 698 mmHg 83%
08:00 +29°C° 0 mm 2 mps 699 mmHg 77%
09:00 +31°C° 0 mm 2 mps 699 mmHg 71%
10:00 +31°C° 0.5 mm 2 mps 699 mmHg 68%
11:00 +32°C° 0.5 mm 2 mps 699 mmHg 64%
12:00 +34°C° 0.5 mm 2 mps 699 mmHg 60%
13:00 +34°C° 3 mm 2 mps 699 mmHg 61%
14:00 +34°C° 3 mm 2 mps 698 mmHg 63%
15:00 +34°C° 3 mm 2 mps 697 mmHg 64%
16:00 +34°C° 2 mm 2 mps 697 mmHg 65%
17:00 +32°C° 2 mm 1 mps 697 mmHg 67%
18:00 +32°C° 2 mm 1 mps 697 mmHg 68%
19:00 +31°C° 0.7 mm 1 mps 697 mmHg 72%
20:00 +30°C° 0.7 mm 1 mps 697 mmHg 76%
21:00 +29°C° 0.7 mm 1 mps 698 mmHg 81%
22:00 +29°C° 0.6 mm 1 mps 698 mmHg 81%
23:00 +29°C° 0.6 mm 1 mps 698 mmHg 82%

18 July, Saturday

Time Temperature Precipitation Wind Pressure Humidity
00:00 +29°C° 0.6 mm 1 mps 698 mmHg 82%
01:00 +28°C° 0.3 mm 1 mps 698 mmHg 83%
02:00 +28°C° 0.3 mm 2 mps 698 mmHg 84%
03:00 +28°C° 0.3 mm 2 mps 698 mmHg 84%
04:00 +28°C° 0 mm 2 mps 698 mmHg 85%
05:00 +27°C° 0 mm 2 mps 698 mmHg 87%
06:00 +27°C° 0 mm 1 mps 698 mmHg 88%
07:00 +28°C° 0.2 mm 2 mps 698 mmHg 83%
08:00 +30°C° 0.2 mm 2 mps 699 mmHg 78%
09:00 +31°C° 0.2 mm 3 mps 699 mmHg 73%
10:00 +32°C° 0.7 mm 2 mps 699 mmHg 68%
11:00 +34°C° 0.7 mm 2 mps 699 mmHg 63%
12:00 +35°C° 0.7 mm 2 mps 699 mmHg 59%
13:00 +35°C° 0.5 mm 2 mps 699 mmHg 58%
14:00 +35°C° 0.5 mm 2 mps 698 mmHg 56%
15:00 +35°C° 0.5 mm 2 mps 698 mmHg 55%
16:00 +35°C° 0.7 mm 2 mps 697 mmHg 59%
17:00 +34°C° 0.7 mm 2 mps 697 mmHg 62%
18:00 +34°C° 0.7 mm 2 mps 697 mmHg 66%
19:00 +32°C° 1.8 mm 2 mps 697 mmHg 69%
20:00 +31°C° 1.8 mm 2 mps 697 mmHg 72%
21:00 +30°C° 1.8 mm 2 mps 698 mmHg 75%
22:00 +30°C° 2 mm 2 mps 698 mmHg 77%
23:00 +29°C° 2 mm 3 mps 698 mmHg 79%
Show more